Mobridge, SD

6:12 PM CDT on September 25, 2017 (GMT -0500)
Mobridge Municipal

Weather History for KMBG - October, 2012

Change the Weather History Date:

Thursday, October 18, 2012

  Actual Average Record
Temperature  
Mean Temperature 44 °F 46 °F  
Max Temperature 46 °F 59 °F 86 °F (1914)
Min Temperature 42 °F 34 °F 13 °F (1930)
Degree Days  
Heating Degree Days 21 19  
Month to date heating degree days 309 274  
Since 1 July heating degree days 461 494  
Cooling Degree Days 0 0  
Month to date cooling degree days 0 0  
Year to date cooling degree days 866 641  
Moisture  
Dew Point 35 °F    
Average Humidity 69    
Maximum Humidity 89    
Minimum Humidity 49    
Precipitation  
Precipitation 0.03 in 0.06 in 1.14 in (2007)
Month to date precipitation 0.31 0.95  
Year to date precipitation 12.72 16.40  
Snow  
Snow 0.00 in - - ()
Month to date snowfall T  
Since 1 July snowfall T  
Snow Depth 0.00 in    
Sea Level Pressure  
Sea Level Pressure 29.65 in    
Wind  
Wind Speed 34 mph (NW)    
Max Wind Speed 48 mph    
Max Gust Speed 61 mph    
Visibility 10 miles    
Events Rain    
T = Trace of Precipitation, MM = Missing Value Source: NWS Daily Summary

Daily Weather History Graph

Daily Weather History Graph

Search for Another Location

Airport or City:

Trip Planner

Search our weather history database for the weather conditions in past years. The results will help you decide how hot, cold, wet, or windy it might be!

Date:

Astronomy

Oct. 18, 2012 Rise Set
Actual Time 8:02 AM CDT 6:49 PM CDT
Civil Twilight 7:32 AM CDT 7:19 PM CDT
Nautical Twilight 6:58 AM CDT 7:54 PM CDT
Astronomical Twilight 6:23 AM CDT 8:28 PM CDT
Moon 11:57 AM CDT (10/18) 9:15 PM CDT (10/18)
Length of Visible Light 11h 47m
Length of Day
10h 47m
Waxing Crescent, 14% of the Moon is Illuminated
Oct 18
Waxing Crescent
Oct 21
First Quarter
Oct 29
Full
Nov 6
Last Quarter
Nov 13
New

Hourly Weather History & Observations

Time (CDT) Temp. Windchill Dew Point Humidity Pressure Visibility Wind Dir Wind Speed Gust Speed Precip Events Conditions
12:52 AM 46.0 °F 36.2 °F 28.9 °F 51% 29.47 in 10.0 mi NW 33.4 mph 55.2 mph N/A   Overcast
1:52 AM 46.0 °F 35.6 °F 28.9 °F 51% 29.47 in 10.0 mi NW 38.0 mph 51.8 mph N/A   Overcast
2:52 AM 46.0 °F 35.5 °F 30.9 °F 56% 29.47 in 10.0 mi NW 39.1 mph 52.9 mph N/A   Overcast
3:52 AM 46.0 °F 35.6 °F 32.0 °F 58% 29.47 in 10.0 mi NW 38.0 mph 54.1 mph N/A   Overcast
4:52 AM 45.0 °F 33.8 °F 32.0 °F 60% 29.48 in 10.0 mi NW 40.3 mph 56.4 mph N/A   Overcast
5:52 AM 45.0 °F 34.3 °F 33.1 °F 63% 29.48 in 10.0 mi NW 36.8 mph 59.8 mph N/A   Overcast
6:03 AM 44.6 °F 32.9 °F 33.8 °F 66% 29.48 in 10.0 mi NW 43.7 mph 56.4 mph N/A   Overcast
6:52 AM 44.1 °F 32.7 °F 34.0 °F 68% 29.49 in 10.0 mi NW 39.1 mph 55.2 mph N/A   Overcast
7:52 AM 43.0 °F 30.9 °F 35.1 °F 74% 29.50 in 10.0 mi NW 41.4 mph 54.1 mph 0.00 in   Overcast
8:52 AM 43.0 °F 31.7 °F 36.0 °F 76% 29.53 in 10.0 mi NW 35.7 mph 51.8 mph 0.00 in Rain Light Rain
9:52 AM 42.1 °F 29.8 °F 37.0 °F 82% 29.56 in 10.0 mi NW 40.3 mph 58.7 mph 0.00 in Rain Light Rain
10:52 AM 42.1 °F 30.3 °F 37.9 °F 85% 29.61 in 3.0 mi NNW 36.8 mph 51.8 mph 0.00 in   Overcast
11:52 AM 42.1 °F 31.7 °F 39.0 °F 89% 29.65 in 10.0 mi NNW 27.6 mph 49.5 mph 0.00 in   Overcast
12:52 PM 44.1 °F 33.2 °F 37.9 °F 79% 29.66 in 10.0 mi NNW 35.7 mph 51.8 mph N/A   Overcast
1:52 PM 44.1 °F 32.7 °F 37.9 °F 79% 29.69 in 10.0 mi NNW 39.1 mph 50.6 mph N/A   Overcast
2:52 PM 44.1 °F 33.0 °F 37.0 °F 76% 29.71 in 10.0 mi NW 36.8 mph 58.7 mph 0.02 in   Overcast
3:52 PM 45.0 °F 34.7 °F 37.0 °F 74% 29.73 in 10.0 mi NNW 33.4 mph 54.1 mph N/A   Overcast
4:52 PM 46.0 °F 36.1 °F 37.0 °F 71% 29.77 in 10.0 mi NNW 34.5 mph 52.9 mph N/A   Overcast
5:52 PM 45.0 °F 35.6 °F 37.0 °F 74% 29.80 in 10.0 mi NW 27.6 mph 47.2 mph N/A   Overcast
6:52 PM 45.0 °F 35.8 °F 37.0 °F 74% 29.82 in 10.0 mi NW 26.5 mph 41.4 mph N/A   Overcast
7:52 PM 45.0 °F 34.6 °F 37.0 °F 74% 29.84 in 10.0 mi NW 34.5 mph 41.4 mph 0.01 in   Overcast
8:52 PM 45.0 °F 34.4 °F 35.1 °F 68% 29.86 in 10.0 mi NW 35.7 mph 42.6 mph N/A   Overcast
9:52 PM 44.1 °F 34.6 °F 35.1 °F 71% 29.88 in 10.0 mi NNW 26.5 mph 34.5 mph N/A   Overcast
10:52 PM 44.1 °F 35.4 °F 35.1 °F 71% 29.89 in 10.0 mi NW 21.9 mph 34.5 mph N/A   Overcast
11:52 PM 44.1 °F 35.4 °F 34.0 °F 68% 29.89 in 10.0 mi NNW 21.9 mph 36.8 mph N/A   Overcast